Regional Weather Roundup
Issued by NWS

Home | Current Version | Previous Version | Text Only | Print | Product List | Glossary On
Versions: 1 2 3 4 5 6 7 8 9 10 11 12 13 14 15 16 17 18 19 20 21 22 23 24 25 26 27 28
000
ASUS42 KTBW 261018
RWRFL
FLORIDA REGIONAL WEATHER ROUNDUP
NATIONAL WEATHER SERVICE TAMPA BAY RUSKIN FL
600 AM EDT FRI MAY 26 2017

NOTE: "FAIR" INDICATES FEW OR NO CLOUDS BELOW 12,000 FEET WITH NO
SIGNIFICANT WEATHER AND/OR OBSTRUCTIONS TO VISIBILITY.

FLZ001>010-012>015-112-114-115-261100-
PANHANDLE FLORIDA

CITY           SKY/WX    TMP DP  RH WIND       PRES   REMARKS
PENSACOLA      CLEAR     69  61  75 CALM      29.98R
PENSACOLA NAS  CLEAR     62  59  90 CALM      29.98R
MILTON NAS     CLEAR     57  56  96 CALM      29.99
CRESTVIEW      CLEAR     53  51  93 CALM      30.01R
DUKE FIELD     FAIR      55  53  94 CALM      29.98R
VALPARAISO     CLEAR     60  56  86 N3        29.99R
MARY ESTHER    CLEAR     58  56  94 CALM      29.98R
PANAMA CITY    FAIR      57  55  93 CALM      29.99R
TYNDALL AFB    CLEAR     61  60  95 CALM      30.00R
APALACHICOLA   PTCLDY    58  58 100 CALM      30.00R

STATION/POSITION SKY/WX   TEMP    WIND        PRES    WAVE   SWELL
                          AIR SEA DIR/SP/G            HT/PER HT/PER
                          (F)     (DEG/KT/KT) (MB)    (FT/S) (FT/S)
30.1N   87.6W              75 76  200/ 10/ 12 1014.8R   2/ 7   2/ 7
29.2N   88.2W              75 77  150/ 10/ 12 1014.9R   2/ 6   2/ 6
28.8N   86.0W              73 76  190/  2/  6 1015.6R   2/ 6   2/ 6
PANAMA CITY BEAC           67 78   10/  5/  6 1016.0R
TOWER C                    74     360/  1/  2 1016.7R
28.5N   84.5W              73 76  270/  2/  4 1016.1R   3/ 6   3/ 6

$$
FLZ011-016>038-118-127-128-134-139-239-261100-
NORTH FLORIDA

CITY           SKY/WX    TMP DP  RH WIND       PRES   REMARKS
MARIANNA       CLEAR     58  55  90 CALM      29.99R
TALLAHASSEE    CLEAR     55  53  93 CALM      30.01R
PERRY          FOG       57  56  97 CALM      30.02R VSB 3/4
CROSS CITY     CLEAR     54  52  94 CALM      30.02R
LAKE CITY      FAIR      55  55 100 CALM      30.02R
GAINESVILLE    CLEAR     55  53  93 CALM      30.02R
WILLISTON      CLEAR     57  57 100 CALM      30.03R
PALATKA        FAIR      54  54 100 W3        30.02R
MAYPORT NAS    CLEAR     65  60  84 W5        30.01R
JACKSONVILLE   CLEAR     56  55  97 CALM      30.01R
JAX NAS        CLEAR     62  56  80 W9        30.02R
FERNANDINA BEA FAIR      63  57  82 NW3       30.00R
ST AUGUSTINE   CLEAR     61  57  87 W7        30.02R
PALM COAST     FAIR      56  56  99 CALM      30.02R

STATION/POSITION SKY/WX   TEMP    WIND        PRES    WAVE   SWELL
                          AIR SEA DIR/SP/G            HT/PER HT/PER
                          (F)     (DEG/KT/KT) (MB)    (FT/S) (FT/S)
SHELL POINT      NOT AVBL
KEATON BEACH               65      20/  1/  2 1016.1R
CEDAR KEY                  72     290/  3/  4 1016.8R
FERNANDINA                 64 76  250/  1/  4 1016.8R
30.7N   81.3W                 78                N/A     2/ 3
MAYPORT                    65 78  280/  4/  5 1016.4R
31.4N   80.9W              72 76  270/ 12/ 14 1015.5R   2/ 7   2/ 7
ST AUGUSTINE               63 74  250/  7/  8 1017.0R

$$
FLZ040-043>046-052-053-057-058-063-144-261100-
INTERIOR CENTRAL FLORIDA

CITY           SKY/WX    TMP DP  RH WIND       PRES   REMARKS
OCALA          CLEAR     56  55  97 CALM      30.03R
THE VILLAGES     N/A     59  59 100 CALM      29.93R
LEESBURG       CLEAR     60  58  92 NW5       30.03R
SANFORD        CLEAR     61  57  87 W3        30.01R
ORLANDO EXEC   CLEAR     65  61  87 CALM      30.02R
ORLANDO INTL   PTCLDY    60  60 100 CALM      30.02R
KISSIMMEE      CLEAR     59  58  96 CALM      30.03R
WINTER HAVEN   CLEAR     63  59  87 NW3       30.03R
LAKELAND       CLEAR     59  57  94 CALM      30.02R
BARTOW         FAIR      64  61  88 NW8       30.01S
OKEECHOBEE     CLEAR     63  59  88 CALM      30.03R

$$
FLZ041-047-054-059-064-141-147-261100-
EAST CENTRAL FLORIDA

CITY           SKY/WX    TMP DP  RH WIND       PRES   REMARKS
DAYTONA BEACH  PTCLDY    59  57  93 CALM      30.01R
DELAND         CLEAR     59  57  94 W3        30.01S
JFK SPACE CTR  CLEAR     58  57  96 NW3       30.01R
CAPE CANAVERAL CLEAR     66  59  78 NW9       30.00R
PATRICK AFB    CLEAR     70  60  71 N12       30.01R
MELBOURNE      CLEAR     64  58  80 CALM      30.01R
VERO BEACH     CLEAR     64  59  83 CALM      30.02R
FT PIERCE      PTCLDY    66  61  84 CALM      30.02R
STUART         PTCLDY    72  63  73 N6        30.02R

STATION/POSITION SKY/WX   TEMP    WIND        PRES    WAVE   SWELL
                          AIR SEA DIR/SP/G            HT/PER HT/PER
                          (F)     (DEG/KT/KT) (MB)    (FT/S) (FT/S)
28.5N   80.2W              73     320/ 14/ 17 1017.1
28.9N   78.5W              79 78  300/ 10/ 12 1015.0R   4/ 5   3/ 5
TRIDENT PIER               69 78  310/  6/ 11 1017.7R
28.4N   80.5W                 74                N/A     1/ 7
27.5N   80.2W                 70                N/A     1/11

$$
FLZ050-056-061-142-242-148-248-149-249-151-251-155-255-
160-260-261100-
WEST CENTRAL FLORIDA

CITY           SKY/WX    TMP DP  RH WIND       PRES   REMARKS
CRYSTAL RIVER  MOCLDY    57  55  94 CALM      30.02R
INVERNESS      MOCLDY    55  55 100 CALM      30.03R
BROOKSVILLE    MOCLDY    62  60  93 CALM      30.03R
CLEARWATER AIR FAIR      64  61  88 CALM      30.01S
ST PETE CLEARW CLEAR     65  60  84 CALM      30.02R
TAMPA INTL     CLEAR     68  61  78 N3        30.02R
TAMPA EXEC     CLEAR     59  55  88 CALM      30.03R FOG
PLANT CITY     CLEAR     61  59  94 CALM      30.04R
MACDILL AFB    CLEAR     68  62  82 N7        30.01R
PETER O KNIGHT CLEAR     70  64  83 CALM      30.02R
ST PETERSBURG  CLEAR     74  62  66 N7        30.00R
SARASOTA       CLEAR     66  60  81 N3        30.00R
VENICE         FAIR      66  64  94 NE5       30.01R

STATION/POSITION SKY/WX   TEMP    WIND        PRES    WAVE   SWELL
                          AIR SEA DIR/SP/G            HT/PER HT/PER
                          (F)     (DEG/KT/KT) (MB)    (FT/S) (FT/S)
27.3N   84.2W                 77                N/A     4/ 7
CLEARWATER BEACH           75 80  280/  8/ 10 1016.6R
MIDDLE TAMPA BAY           74     350/  8/ 11 1016.5R
VENICE                     70 81   60/  5/  7 1015.3R

$$
FLZ066-069-070-075>078-162-262-165-265-261100-
SOUTHWEST FLORIDA AND KEYS

CITY           SKY/WX    TMP DP  RH WIND       PRES   REMARKS
PUNTA GORDA    CLEAR     64  62  93 E5        30.03R
FT MYERS       CLEAR     70  65  84 NE7       30.00R
SOUTHWEST INTL PTCLDY    69  65  86 NE3       30.01R
NAPLES         MOCLDY    75  70  84 NE3       29.99R
MARCO ISLAND   MOCLDY    72  68  88 E3        30.00R
IMMOKALEE      CLOUDY    70  66  88 CALM      30.02R
MARATHON       PTCLDY    83  79  88 CALM      29.98R
KEY WEST NAS   PTCLDY    80  78  94 S3        29.99R
KEY WEST INTL  CLEAR     82  77  84 S6        29.99R

STATION/POSITION SKY/WX   TEMP    WIND        PRES    WAVE   SWELL
                          AIR SEA DIR/SP/G            HT/PER HT/PER
                          (F)     (DEG/KT/KT) (MB)    (FT/S) (FT/S)
NAPLES                        83  100/  4/  5 1015.5R
DRY TORTUGAS               81     150/  6/  7 1015.3R
SAND KEY                   81     170/  8/  9 1015.9R
LONG KEY                   83 83  200/  4/  5 1015.4R
MOLASSES REEF              81 81     CALM     1015.9R

$$
FLZ067-068-071>074-168-172>174-261100-
SOUTHEAST FLORIDA

CITY           SKY/WX    TMP DP  RH WIND       PRES   REMARKS
W PALM BEACH   PTCLDY    70  70 100 NW5       30.00R
FT LAUDER-EXEC CLEAR     79  73  82 NW3       29.99R
FT LAUDERDALE  MOCLDY    77  75  93 CALM      29.99R
POMPANO BEACH  PTCLDY    77  74  90 W5        30.00R
PEMBROKE PINES MOCLDY    77  74  90 CALM      30.00R
OPA LOCKA      MOCLDY    78  76  93 W3        30.00R
MIAMI          MOCLDY    80  74  81 SW3       29.99R
WEST KENDALL   CLOUDY    77  74  90 CALM      29.99R
HOMESTEAD      PTCLDY    75  75 100 CALM      29.99R

STATION/POSITION SKY/WX   TEMP    WIND        PRES    WAVE   SWELL
                          AIR SEA DIR/SP/G            HT/PER HT/PER
                          (F)     (DEG/KT/KT) (MB)    (FT/S) (FT/S)
PORT EVERGLADES            78     220/  1/  3 1015.3R
VIRGINIA KEY               81 83  250/  3/  5 1014.9R
LAKE WORTH                 76 81              1016.5R
FOWEY ROCKS                81 82  240/  4/  5 1016.3R
SETTLEMENT POINT           81     250/ 10/ 12 1015.7R

$$





USA.gov is the U.S. government's official web portal to all federal, state and local government web resources and services.